TimeEST,TemperatureF,Dew PointF,Humidity,Sea Level PressureIn,VisibilityMPH,Wind Direction,Wind SpeedMPH,Gust SpeedMPH,PrecipitationIn,Events,Conditions,WindDirDegrees,DateUTC
12:51 AM,27.0,10.9,51,30.11,10.0,NNW,3.5,-,N/A,,Clear,340,2013-01-21 05:51:00
1:51 AM,26.1,12.9,58,30.10,10.0,Calm,Calm,-,N/A,,Clear,0,2013-01-21 06:51:00
2:51 AM,21.0,12.0,68,30.12,10.0,Calm,Calm,-,N/A,,Clear,0,2013-01-21 07:51:00
3:51 AM,21.9,10.9,63,30.10,10.0,South,4.6,-,N/A,,Clear,180,2013-01-21 08:51:00
4:51 AM,24.1,10.9,57,30.08,10.0,South,4.6,-,N/A,,Clear,190,2013-01-21 09:51:00
5:51 AM,25.0,10.9,55,30.07,10.0,South,3.5,-,N/A,,Clear,190,2013-01-21 10:51:00
6:51 AM,23.0,10.9,60,30.08,10.0,South,4.6,-,N/A,,Partly Cloudy,180,2013-01-21 11:51:00
7:51 AM,24.1,10.0,55,30.08,10.0,Calm,Calm,-,N/A,,Clear,0,2013-01-21 12:51:00
8:51 AM,28.9,12.0,49,30.08,10.0,SW,8.1,-,N/A,,Clear,230,2013-01-21 13:51:00
9:51 AM,30.9,12.0,46,30.08,10.0,WSW,10.4,-,N/A,,Mostly Cloudy,250,2013-01-21 14:51:00
10:51 AM,32.0,10.9,42,30.08,10.0,WSW,12.7,19.6,N/A,,Mostly Cloudy,240,2013-01-21 15:51:00
11:51 AM,34.0,10.0,37,30.04,10.0,West,15.0,24.2,N/A,,Overcast,270,2013-01-21 16:51:00
12:51 PM,35.1,8.1,33,30.00,10.0,WSW,17.3,31.1,N/A,,Mostly Cloudy,250,2013-01-21 17:51:00
1:51 PM,36.0,12.0,37,29.97,10.0,WSW,17.3,25.3,N/A,,Clear,250,2013-01-21 18:51:00
2:51 PM,37.0,8.1,30,29.96,10.0,WSW,20.7,33.4,N/A,,Clear,250,2013-01-21 19:51:00
3:51 PM,37.0,5.0,26,29.96,10.0,West,24.2,34.5,N/A,,Clear,260,2013-01-21 20:51:00
4:51 PM,33.1,3.0,28,29.99,10.0,West,26.5,34.5,N/A,,Clear,280,2013-01-21 21:51:00
5:51 PM,30.0,3.0,32,30.01,10.0,West,16.1,32.2,N/A,,Clear,280,2013-01-21 22:51:00
6:51 PM,28.0,1.9,33,30.04,10.0,WNW,11.5,23.0,N/A,,Clear,290,2013-01-21 23:51:00
7:51 PM,25.0,1.9,37,30.05,10.0,West,12.7,28.8,N/A,,Clear,280,2013-01-22 00:51:00
8:51 PM,24.1,5.0,44,30.05,10.0,WNW,13.8,25.3,N/A,,Clear,300,2013-01-22 01:51:00
9:51 PM,21.9,3.9,46,30.06,10.0,WNW,11.5,26.5,N/A,,Scattered Clouds,290,2013-01-22 02:51:00
10:51 PM,19.9,3.9,50,30.08,10.0,NW,13.8,26.5,N/A,,Partly Cloudy,310,2013-01-22 03:51:00
11:51 PM,18.0,3.0,52,30.09,10.0,NW,12.7,21.9,N/A,,Clear,310,2013-01-22 04:51:00